Hourly Weather Roundup
Issued by NWS Central Illinois

Home | Current Version | Previous Version | Text Only | Print | Product List | Glossary On
Versions: 1 2 3 4 5 6 7 8 9 10 11 12 13 14 15 16 17 18 19 20 21 22 23 24 25 26 27 28 29 30 31 32 33 34 35 36 37 38 39 40 41 42 43 44 45 46 47 48 49 50
001
NZUS43 KILX 160910
HWRILX

Area Weather Roundup
National Weather Service Lincoln IL
300 AM CST TUE JAN 16 2018

NOTE:  "FAIR" indicates few or no clouds below 12,000 feet, with
       no sigificant weather and/or obstructions to visibility.


CITY           SKY/WX    TMP DP  RH WIND       PRES   REMARKS
Bloomington    MOCLDY    -4  -8  83 W14       30.47R WCI -24
Champaign      FAIR      -4  -9  79 W13       30.50R WCI -23
Danville       FAIR      -2  -8  76 W10       30.45R WCI -19
Decatur        FAIR      -2  -8  76 W13       30.52R WCI -20
Effingham      FAIR       1  -6  73 W10G16    30.59R WCI -15
Flora          FAIR       4  -4  68 W9          N/A  WCI -10
Galesburg      FLURRIES  -1  -6  81 W16       30.51F WCI -22
Jacksonville   PTCLDY    -2  -9  74 W16       30.57S WCI -23
Lacon          FLURRIES  -1  -7  76 W9        30.49S WCI -16
Lawrenceville  FAIR       2  -5  72 W7        30.59R WCI -11
Litchfield     CLEAR     -1  -8  73 W8        30.57S WCI -15
$$


CITY           SKY/WX    TMP DP  RH WIND       PRES   REMARKS
Lincoln        FAIR      -1  -8  74 W9        30.53S WCI -17
Macomb         CLEAR     -3  -9  77 W13       30.56S WCI -22
Mattoon        FAIR      -2  -9  72 W9        30.52R WCI -18
Mt Carmel AP   FAIR       3  -5  68 NW9       30.59R WCI -12
Olney-Noble AP FAIR       1  -8  66 W6        30.59R WCI -10
Paris AP       FAIR      -2  -7  81 W8        30.53R WCI -17
Peoria         FAIR      -3  -9  75 NW9G20    30.52R WCI -19
Pontiac        MOCLDY    -1  -5  82 W13       30.47R WCI -20
Rantoul        FAIR      -1  -6  78 W13       30.48R WCI -19
Robinson       FAIR      -3  -7  84 W8        30.59R WCI -18
Springfield    FAIR      -1  -9  68 W12       30.56R WCI -18
Taylorville    FAIR      -1  -8  72 W12G20    30.56S WCI -19
$$

...REGIONAL REPORTS...


CITY           SKY/WX    TMP DP  RH WIND       PRES   REMARKS
Chicago O`Hare FLURRIES  10   4  76 W10       30.34S WCI  -4
Kankakee       FLURRIES   0  -6  77 W15       30.44S WCI -20
Moline         CLOUDY     1  -6  72 W15G22    30.52R WCI -18
Mount Sterling PTCLDY    -3  -9  75 W12       30.56S WCI -21
Mount Vernon   FAIR       1  -6  72 CALM      30.60S
Pittsfield     PTCLDY    -1  -8  71 W9        30.59R WCI -16
Quincy         CLEAR     -3 -10  72 W14       30.57S WCI -22
Rockford       FLURRIES   9   4  80 NW12      30.40S WCI  -6
$$


CITY           SKY/WX    TMP DP  RH WIND       PRES   REMARKS
Burlington     MOCLDY    -4 -12  68 NW10      30.55R WCI -21
Cedar Rapids   LGT SNOW  -3  -9  75 NW15      30.52R WCI -23
Des Moines     FLURRIES  -6 -13  71 NW13      30.62S WCI -25
Kirksville     CLEAR     -5 -10  79 NW10      30.60R WCI -23
Ottumwa        CLEAR     -6 -14  68 NW15G22   30.59S WCI -27
St Louis       PTCLDY     2  -6  69 NW8       30.61S WCI -12
$$


CITY           SKY/WX    TMP DP  RH WIND       PRES   REMARKS
Terre Haute    FAIR       0  -8  69 W8        30.54R WCI -14
Evansville     FAIR       8  -1  66 NW10      30.59R WCI  -6
Indianapolis   FAIR       0  -5  79 SW12      30.47R WCI -17
Lafayette      CLOUDY    -1  -6  79 W9        30.46S WCI -16
Madison        CLOUDY    14  10  84 N8        30.39R WCI   3
Milwaukee      LGT SNOW  21  17  84 N9        30.33R FOG     WCI  11
$$






USA.gov is the U.S. government's official web portal to all federal, state and local government web resources and services.